Flag for Germany Weather past 2 weeks in Olpe, North Rhine-Westphalia, Germany

Now
59 °F

Sunny.


Feels Like: 59 °F
Forecast: 42 / 65 °F
Wind: 5 mph from North

Location: Hessen

Current Time: May 22, 2015 at 8:05:46 PM

Latest Report: May 22, 2015 at 7:20 PM


Visibility: 10 mi

Pressure: 30.21 "Hg

Humidity: 51%

Dew point: 41 °F

Location of OlpeLocation

Historic Weather in Olpe — Graph

°F

Olpe temperature yesterday

Maximum temperature yesterday: 55 °F (at 4:50 PM)
Minimum temperature yesterday: 43 °F (at 7:50 AM)
Average temperature yesterday: 51 °F

Past Weeks' High & Low Weather Summary

 TemperatureHumidityPressure
High75 °F (May 12, 1:20 PM)100% (May 9, 6:50 PM)30.33 "Hg (May 9, 6:50 PM)
Low41 °F (May 16, 7:50 AM)31% (May 14, 3:50 PM)29.68 "Hg (May 18, 9:20 PM)
Average56 °F61%30.07 "Hg
* Reported May 7 6:20 PM — May 22 6:50 PM, Olpe, Weather by CustomWeather, © 2015

Note: Actual official high and low records may vary slightly from our data, if they occured in-between our weather recording intervals... More about our weather records

Advertising

Olpe weather history for previous 24 hours

 ConditionsComfort  
Time TempWeatherWind HumidityBarometerVisibility
6:50 PM
Fri, May 22
59 °FPassing clouds.5 mph48%30.21 "HgN/A
6:20 PM59 °FSunny.3 mph48%30.21 "Hg10 mi
5:50 PM61 °FSunny.3 mph45%30.24 "Hg10 mi
4:50 PM61 °FPartly sunny.3 mph48%30.24 "HgN/A
4:20 PM61 °FPartly sunny.5 mph48%30.27 "HgN/A
3:50 PM59 °FPartly sunny.5 mph51%30.27 "HgN/A
3:20 PM59 °FPartly sunny.6 mph51%30.27 "HgN/A
2:50 PM59 °FScattered clouds.5 mph51%30.27 "HgN/A
2:20 PM59 °FScattered clouds.6 mph51%30.27 "HgN/A
1:50 PM57 °FScattered clouds.3 mph55%30.27 "HgN/A
1:20 PM59 °FScattered clouds.3 mph55%30.27 "HgN/A
12:50 PM59 °FScattered clouds.7 mph55%30.30 "HgN/A
12:20 PM57 °FScattered clouds.5 mph55%30.30 "HgN/A
11:50 AM57 °FScattered clouds.5 mph59%30.30 "HgN/A
11:20 AM55 °FScattered clouds.5 mph63%30.33 "HgN/A
10:50 AM55 °FScattered clouds.3 mph67%30.33 "HgN/A
10:20 AM55 °FScattered clouds.5 mph63%30.33 "HgN/A
9:50 AM54 °FScattered clouds.6 mph67%30.33 "HgN/A
9:20 AM54 °FScattered clouds.6 mph67%30.33 "HgN/A
8:50 AM54 °FPassing clouds.2 mph67%30.33 "HgN/A
8:20 AM54 °FSunny.3 mph63%30.33 "Hg10 mi
7:50 AM52 °FSunny.3 mph67%30.33 "Hg10 mi
9:50 PM
Thu, May 21
50 °FSunny.2 mph62%30.30 "Hg10 mi
8:50 PM52 °FPassing clouds.5 mph58%30.27 "HgN/A
8:20 PM54 °FSunny.3 mph51%30.27 "Hg10 mi
Weather by CustomWeather, © 2015

See weather overviewHow to use our weather pages